[[{"header":{"parameterUnit":"m.s-1","parameterCategory":1,"la1":30.2991,"la2":30.254,"lo1":-89.0895,"lo2":-89.0444,"dy":0.0017,"dx":0.0017,"nx":28,"ny":28,"refTime":"2024-04-16T21:00:00:Z","depth":0,"parameterNumber":2,"parameterNumberName":"U-component_of_WINDS"},"data":[0,0,0,0,0,0,0,0,0,0,0,0,0,0,0,0,0,0,0,0,0,0,0,0,0,0,0,0,0,0,0,0,0,0,0,0,0,0,0,0,0,0,0,0,0,0,0,0,0,0,0,0,0,0,0,0,0,0,-2.5054,-2.5054,0,-2.5079,-2.508,-2.508,-2.5058,-2.5057,-2.5056,-2.5055,-2.5079,-2.508,-2.5082,0,0,0,0,0,0,0,0,0,0,0,0,0,-2.4984,-2.4985,-2.5054,-2.5054,-2.5054,-2.5079,-2.508,-2.508,-2.5058,-2.5057,-2.5056,-2.5054,-2.5078,-2.508,-2.5082,0,0,0,0,0,0,0,0,0,0,0,0,0,-2.5012,-2.4985,-2.5054,-2.5046,-2.5046,-2.5079,-2.508,-2.508,-2.5058,-2.5057,-2.5055,-2.5054,-2.5078,-2.508,-2.5082,-2.5123,0,0,-2.5089,-2.509,0,0,0,0,0,0,0,0,-2.501,-2.5015,-2.5047,-2.5047,-2.5046,-2.5064,-2.5064,-2.5094,-2.5058,-2.5053,-2.5055,-2.5053,-2.5075,-2.5077,-2.5085,-2.5124,-2.5125,-2.5089,-2.509,-2.5091,-2.5092,0,0,0,0,0,0,0,-2.5009,-2.5013,-2.5064,-2.5048,-2.5047,-2.5041,-2.5044,-2.5069,-2.5071,-2.5054,-2.5052,-2.5056,-2.5074,-2.5083,-2.5085,-2.5125,-2.5089,-2.5091,-2.5092,-2.5093,-2.52,-2.5201,0,0,0,0,0,0,-2.5008,-2.5012,-2.5063,-2.5064,-2.5025,-2.5044,-2.5046,-2.506,-2.5071,-2.5071,-2.5057,-2.5054,-2.508,-2.5083,-2.5086,-2.5135,-2.5091,-2.5093,-2.5095,-2.5198,-2.52,-2.5202,0,0,0,0,0,0,-2.5006,-2.5012,-2.5062,-2.5038,-2.5044,-2.5046,-2.5061,-2.5061,-2.5069,-2.5073,-2.5073,-2.5065,-2.5079,-2.5083,-2.5114,-2.5135,-2.5094,-2.5096,-2.5197,-2.5199,-2.5201,-2.5232,0,0,0,0,0,0,-2.5004,-2.5012,-2.5028,-2.5038,-2.5045,-2.509,-2.5063,-2.5062,-2.5073,-2.5071,-2.5081,-2.5082,-2.5078,-2.5111,-2.5116,-2.5137,-2.5098,-2.5195,-2.5198,-2.52,-2.5229,-2.5235,-2.5241,0,0,0,0,0,-2.5002,-2.5035,-2.5029,-2.5035,-2.5065,-2.5091,-2.5095,-2.5091,-2.5075,-2.5091,-2.5094,-2.5081,-2.5132,-2.5114,-2.512,-2.5142,-2.5193,-2.5197,-2.52,-2.5227,-2.5234,-2.524,0,0,0,0,0,0,-2.5026,-2.5036,-2.5029,-2.5067,-2.5079,-2.5088,-2.5107,-2.5099,-2.5114,-2.5111,-2.5104,-2.5107,-2.514,-2.5144,-2.5124,-2.5183,-2.516,-2.5165,-2.5179,-2.5186,-2.5191,-2.5189,-2.51,0,0,0,0,0,-2.5036,-2.5057,-2.5065,-2.5097,-2.5104,-2.5105,-2.5116,-2.5112,-2.5123,-2.5128,-2.5133,-2.5143,-2.5162,-2.5174,-2.5191,-2.523,-2.5232,-2.5249,-2.5254,-2.5259,-2.5263,-2.5284,-2.5291,-2.5213,-2.5213,-2.5213,0,0,-2.5056,-2.5064,-2.5078,-2.5102,-2.5111,-2.5132,-2.5109,-2.5132,-2.5148,-2.5131,-2.5161,-2.5165,-2.5177,-2.5212,-2.5228,-2.5217,-2.5285,-2.5263,-2.5267,-2.5268,-2.5288,-2.5295,-2.5302,-2.5215,-2.5215,-2.5214,0,0,-2.5104,-2.5112,-2.5141,-2.515,-2.5164,-2.5164,-2.5171,-2.5182,-2.5184,-2.5215,-2.5202,-2.5221,-2.5253,-2.5262,-2.527,-2.5323,-2.5312,-2.5329,-2.5357,-2.5378,-2.5384,-2.539,-2.5408,-2.5415,-2.5333,-2.5333,-2.5333,0,-2.5127,-2.5159,-2.5156,-2.5181,-2.5192,-2.5179,-2.5207,-2.5216,-2.5234,-2.5242,-2.5229,-2.527,-2.5277,-2.5314,-2.5327,-2.5335,-2.5342,-2.5327,-2.5384,-2.5389,-2.5394,-2.5411,-2.5418,-2.5335,-2.5335,-2.5334,-2.5334,0,-2.5187,-2.521,-2.5231,-2.525,-2.5264,-2.529,-2.529,-2.5304,-2.5299,-2.5301,-2.5333,-2.5341,-2.5359,-2.5368,-2.5363,-2.5405,-2.5398,-2.5385,-2.5362,-2.5403,-2.542,-2.5426,-2.5338,-2.5337,-2.5336,-2.5336,0,0,-2.5249,-2.5267,-2.5275,-2.5284,-2.5298,-2.5316,-2.5342,-2.5361,-2.5373,-2.5386,-2.5408,-2.5436,-2.5424,-2.5434,-2.543,-2.5448,-2.5489,-2.5433,-2.5433,-2.5443,-2.5536,-2.5545,-2.5553,-2.5483,-2.5484,-2.5485,-2.5535,0,-2.5297,-2.5343,-2.5341,-2.5384,-2.5405,-2.5393,-2.5416,-2.5427,-2.543,-2.5448,-2.5451,-2.5471,-2.5454,-2.546,-2.5477,-2.5481,-2.5508,-2.5477,-2.5501,-2.5502,-2.5498,-2.5561,-2.5571,-2.5618,-2.5541,-2.5542,-2.5543,0,-2.5359,-2.5376,-2.5421,-2.5433,-2.5442,-2.5462,-2.548,-2.5498,-2.551,-2.5511,-2.5523,-2.5516,-2.5542,-2.5519,-2.5555,-2.5534,-2.5544,-2.5547,-2.5549,-2.555,-2.5524,-2.5564,-2.5632,-2.5639,-2.5553,-2.5552,-2.5551,0,-2.54,-2.5433,-2.5465,-2.5473,-2.5488,-2.5502,-2.5509,-2.552,-2.5532,-2.5548,-2.5556,-2.5574,-2.5583,-2.5597,-2.5596,-2.558,-2.5632,-2.5609,-2.5632,-2.5632,-2.5643,-2.5642,-2.5713,-2.5651,-2.5651,-2.5651,-2.565,0,-2.5453,-2.5481,-2.5483,-2.5502,-2.5533,-2.5531,-2.5561,-2.5567,-2.5577,-2.5597,-2.5588,-2.5606,-2.5603,-2.5622,-2.5621,-2.565,-2.5654,-2.5655,-2.5654,-2.5656,-2.5656,-2.5661,-2.5658,-2.5652,-2.5652,-2.5652,-2.5651,0,-2.5503,-2.5506,-2.5539,-2.5551,-2.5555,-2.5577,-2.5587,-2.5605,-2.5608,-2.5633,-2.5638,-2.5642,-2.5664,-2.5664,-2.5688,-2.5687,-2.5723,-2.5719,-2.5719,-2.5718,-2.5741,-2.5739,-2.5818,-2.5828,-2.576,-2.576,-2.5761,0,-2.5536,-2.5558,-2.5573,-2.5586,-2.5594,-2.5615,-2.5627,-2.5626,-2.5639,-2.5656,-2.5672,-2.5693,-2.5709,-2.5744,-2.5748,-2.5767,-2.5762,-2.5789,-2.5765,-2.5766,-2.5762,-2.5761,-2.5763,-2.5793,-2.5794,-2.5795,-2.5795,0,-2.5595,-2.5596,-2.5615,-2.5635,-2.5651,-2.5666,-2.568,-2.5691,-2.5691,-2.5707,-2.5729,-2.5742,-2.5767,-2.5788,-2.5806,-2.5812,-2.5804,-2.5803,-2.5809,-2.581,-2.5809,-2.581,-2.5731,-2.5801,-2.58,-2.58,-2.5799,-2.5799,-2.5638,-2.5656,-2.567,-2.5692,-2.5703,-2.5716,-2.5734,-2.5739,-2.5758,-2.5779,-2.5777,-2.5802,-2.5814,-2.5838,-2.5846,-2.5865,-2.5855,-2.5865,-2.5867,-2.5869,-2.5872,-2.5807,-2.5868,-2.5868,-2.5868,-2.5868,-2.5868,0,-2.5696,-2.5705,-2.5725,-2.5745,-2.5762,-2.5755,-2.577,-2.5784,-2.5807,-2.5819,-2.5836,-2.5862,-2.5882,-2.5889,-2.5908,-2.5922,-2.5918,-2.5927,-2.5925,-2.5927,-2.5879,-2.5871,-2.5929,-2.5929,-2.5929,-2.5929,-2.5929,-2.5929,-2.5728,-2.576,-2.5762,-2.5798,-2.5807,-2.5832,-2.5841,-2.5853,-2.5864,-2.5893,-2.591,-2.5915,-2.5925,-2.5945,-2.5963,-2.5965,-2.5972,-2.5982,-2.5982,-2.5937,-2.593,-2.5924,-2.5917,-2.5984,-2.5984,-2.6028,-2.6029,-2.6029]},{"header":{"parameterUnit":"m.s-1","parameterCategory":1,"la1":30.2991,"la2":30.254,"lo1":-89.0895,"lo2":-89.0444,"dy":0.0017,"dx":0.0017,"nx":28,"ny":28,"refTime":"2024-04-16T21:00:00:Z","depth":0,"parameterNumber":3,"parameterNumberName":"V-component_of_WINDS"},"data":[0,0,0,0,0,0,0,0,0,0,0,0,0,0,0,0,0,0,0,0,0,0,0,0,0,0,0,0,0,0,0,0,0,0,0,0,0,0,0,0,0,0,0,0,0,0,0,0,0,0,0,0,0,0,0,0,0,0,2.6328,2.6329,0,2.6381,2.6381,2.6382,2.6396,2.6395,2.6395,2.6395,2.6446,2.6447,2.6449,0,0,0,0,0,0,0,0,0,0,0,0,0,2.6238,2.624,2.6328,2.6329,2.6329,2.6381,2.6381,2.6382,2.6396,2.6395,2.6395,2.6395,2.6445,2.6447,2.6449,0,0,0,0,0,0,0,0,0,0,0,0,0,2.6282,2.624,2.6328,2.6342,2.6344,2.6381,2.6382,2.6382,2.6396,2.6395,2.6395,2.6394,2.6445,2.6447,2.6449,2.6474,0,0,2.6457,2.6458,0,0,0,0,0,0,0,0,2.628,2.6286,2.634,2.6342,2.6344,2.6381,2.6368,2.6413,2.6396,2.6376,2.6395,2.6394,2.6424,2.6429,2.6439,2.6477,2.6479,2.6457,2.6459,2.646,2.646,0,0,0,0,0,0,0,2.6277,2.6283,2.6349,2.634,2.6343,2.6346,2.6352,2.6377,2.6402,2.6378,2.6379,2.6385,2.6425,2.6437,2.6441,2.648,2.6457,2.6459,2.6461,2.6462,2.6542,2.6542,0,0,0,0,0,0,2.6271,2.6281,2.6347,2.635,2.631,2.6348,2.6354,2.637,2.6402,2.6407,2.6386,2.6386,2.6433,2.6438,2.6443,2.6475,2.646,2.6462,2.6463,2.6541,2.6542,2.6543,0,0,0,0,0,0,2.6269,2.6277,2.6345,2.6316,2.6325,2.635,2.6367,2.6371,2.6383,2.6408,2.6412,2.6393,2.6433,2.6439,2.6467,2.6477,2.6463,2.6465,2.654,2.6541,2.6542,2.654,0,0,0,0,0,0,2.6267,2.6276,2.6286,2.6316,2.6326,2.6369,2.6368,2.6372,2.6387,2.6388,2.6416,2.642,2.6433,2.6463,2.6469,2.648,2.6467,2.654,2.6541,2.6542,2.6539,2.6541,2.6542,0,0,0,0,0,2.6264,2.6282,2.6287,2.6295,2.6339,2.637,2.6375,2.6391,2.6388,2.6398,2.6415,2.6419,2.6475,2.6466,2.6473,2.6485,2.6539,2.6541,2.6542,2.6539,2.654,2.6542,0,0,0,0,0,0,2.6252,2.6287,2.6292,2.6321,2.6342,2.6372,2.6385,2.6392,2.6414,2.6413,2.643,2.6437,2.6464,2.6477,2.6466,2.6512,2.6507,2.651,2.6502,2.6504,2.6505,2.6502,2.6469,0,0,0,0,0,2.6253,2.6275,2.6304,2.6327,2.6337,2.6359,2.6373,2.6383,2.6406,2.6415,2.6433,2.6454,2.6477,2.6491,2.6513,2.6541,2.6548,2.6553,2.6554,2.6555,2.6558,2.6575,2.6578,2.6547,2.6547,2.6547,0,0,2.6254,2.6276,2.6289,2.6325,2.6343,2.6365,2.6367,2.639,2.6407,2.6418,2.6446,2.646,2.6485,2.6514,2.6527,2.6526,2.6568,2.6557,2.6558,2.656,2.6577,2.658,2.6583,2.6548,2.6548,2.6548,0,0,2.6269,2.6288,2.631,2.6328,2.6356,2.6371,2.6376,2.6405,2.6416,2.6445,2.6454,2.6474,2.6512,2.653,2.6543,2.6568,2.6573,2.6574,2.6581,2.6598,2.6601,2.6603,2.6613,2.6616,2.6576,2.6576,2.6576,0,2.6268,2.6303,2.632,2.6344,2.636,2.6372,2.6395,2.6412,2.6445,2.6455,2.6453,2.6503,2.652,2.6554,2.656,2.6571,2.6578,2.6571,2.6599,2.6602,2.6604,2.6614,2.6617,2.6576,2.6576,2.6576,2.6576,0,2.63,2.6325,2.6339,2.6373,2.639,2.6413,2.6434,2.645,2.6459,2.6474,2.6504,2.6525,2.6553,2.6561,2.6569,2.6597,2.6595,2.6596,2.6592,2.6607,2.6616,2.662,2.6577,2.6577,2.6577,2.6576,0,0,2.6308,2.6353,2.6358,2.6374,2.6406,2.6425,2.6449,2.6478,2.6491,2.6514,2.6535,2.6568,2.6569,2.6585,2.6596,2.661,2.663,2.661,2.661,2.6614,2.6663,2.6663,2.6667,2.6634,2.6635,2.6635,2.6662,0,2.6328,2.6373,2.639,2.6426,2.6449,2.6462,2.6483,2.6505,2.652,2.6542,2.6558,2.6582,2.6582,2.6592,2.6607,2.6624,2.664,2.6623,2.6654,2.6655,2.6648,2.6672,2.6671,2.6695,2.6665,2.6666,2.6666,0,2.6357,2.6382,2.6421,2.6453,2.6463,2.6482,2.651,2.6531,2.6556,2.6566,2.6585,2.6595,2.6621,2.6615,2.6651,2.6639,2.6653,2.6663,2.6665,2.6669,2.6662,2.6677,2.6703,2.6707,2.6672,2.6672,2.6671,0,2.6361,2.6404,2.6433,2.6446,2.6484,2.6497,2.6513,2.6538,2.6555,2.6579,2.659,2.6617,2.6631,2.6652,2.6669,2.6663,2.6704,2.6699,2.6713,2.6713,2.6721,2.6721,2.6751,2.6729,2.6729,2.6729,2.6728,0,2.6381,2.6405,2.6436,2.6454,2.6481,2.6501,2.6527,2.6543,2.6566,2.6588,2.66,2.662,2.6641,2.6664,2.6677,2.6706,2.6712,2.6721,2.6724,2.672,2.6719,2.673,2.6729,2.673,2.6729,2.6729,2.6729,0,2.639,2.6411,2.6445,2.6478,2.6487,2.6505,2.6534,2.6552,2.6568,2.6596,2.6603,2.6628,2.6656,2.6675,2.671,2.6719,2.6751,2.6753,2.6742,2.6744,2.6758,2.6757,2.6796,2.6803,2.6775,2.6776,2.6776,0,2.6402,2.6421,2.6457,2.6473,2.649,2.6515,2.6533,2.6553,2.6571,2.6603,2.6617,2.6646,2.667,2.6714,2.6735,2.6762,2.6766,2.6778,2.677,2.6766,2.6767,2.6767,2.6769,2.6779,2.6779,2.678,2.678,0,2.6422,2.6432,2.6458,2.6488,2.6509,2.6533,2.6557,2.657,2.6594,2.6614,2.6643,2.6662,2.6699,2.6727,2.6757,2.6773,2.6781,2.6782,2.6787,2.6784,2.6777,2.6782,2.6747,2.6781,2.6781,2.6781,2.6781,2.6781,2.6433,2.6451,2.648,2.6509,2.653,2.6553,2.6572,2.6592,2.6617,2.665,2.666,2.6691,2.6718,2.6758,2.6775,2.6799,2.6798,2.6805,2.6807,2.6808,2.6809,2.6773,2.6804,2.6804,2.6804,2.6804,2.6804,0,2.6455,2.6475,2.6501,2.6536,2.6558,2.6565,2.6593,2.6611,2.6639,2.6664,2.6688,2.6722,2.6751,2.6775,2.6804,2.6819,2.6824,2.6826,2.6826,2.683,2.6808,2.6801,2.6822,2.6822,2.6822,2.6822,2.6822,2.6822,2.6469,2.6501,2.6515,2.6557,2.6577,2.6608,2.6624,2.6645,2.6665,2.6704,2.6728,2.6744,2.6769,2.6801,2.6828,2.6834,2.6845,2.6847,2.6854,2.6833,2.6831,2.6829,2.6823,2.6849,2.6849,2.6874,2.6874,2.6875]}]]